Location: Krakow
(50.0212°N, 19.9423°E)
Time: 02:22:45
(UTC+02:00)

UWE-3 - Pass Details

Date: 28 April 2024
Orbit: 569 x 652 km, 97.8° (Epoch: 23 May)

Event Time Altitude Azimuth Distance (km) Brightness Sun altitude
Rises 04:24:31 0° 4° (N) 2,871 ? -8.8°
Reaches altitude 10° 04:26:56 10° 352° (N) 1,977 ? -8.5°
Maximum altitude 04:30:29 26° 296° (WNW) 1,232 ? -8.0°
Drops below altitude 10° 04:34:07 10° 240° (WSW) 2,008 ? -7.5°
Enters shadow 04:34:15 - 239° (WSW) 2,056 ? -7.5°
